Hutchinson, MN

10:58 AM CDT on May 23, 2018 (GMT -0500)
Hutchinson Municipal-Butler

Weather History for KHCD - April, 2014

Change the Weather History Date:

Wednesday, April 23, 2014

  Actual Average Record
Temperature  
Mean Temperature 43 °F -  
Max Temperature 46 °F 59 °F 84 °F (2009)
Min Temperature 40 °F 37 °F 21 °F (1967)
Degree Days  
Heating Degree Days 22    
Moisture  
Dew Point 36 °F    
Average Humidity 77    
Maximum Humidity 94    
Minimum Humidity 57    
Precipitation  
Precipitation 0.17 in - - ()
Sea Level Pressure  
Sea Level Pressure 29.98 in    
Wind  
Wind Speed 12 mph (ESE)    
Max Wind Speed 21 mph    
Max Gust Speed 26 mph    
Visibility 10 miles    
Events Rain , Thunderstorm    
Averages and records for this station are not official NWS values.
T = Trace of Precipitation, MM = Missing Value Source: NWS Daily Summary

Daily Weather History Graph

Daily Weather History Graph

Search for Another Location

Airport or City:

Astronomy

Apr. 23, 2014 Rise Set
Actual Time 6:19 AM CDT 8:12 PM CDT
Civil Twilight 5:48 AM CDT 8:44 PM CDT
Nautical Twilight 5:09 AM CDT 9:22 PM CDT
Astronomical Twilight 4:28 AM CDT 10:05 PM CDT
Moon 3:07 AM CDT 2:07 PM CDT
Length of Visible Light 14h 56m
Length of Day
13h 53m
Waning Crescent, 34% of the Moon is Illuminated
Apr 23
Waning Crescent
Apr 29
New
May 6
First Quarter
May 14
Full
May 21
Last Quarter

Hourly Weather History & Observations

Time (CDT) Temp. Windchill Dew Point Humidity Pressure Visibility Wind Dir Wind Speed Gust Speed Precip Events Conditions
12:13 AM 45.9 °F 41.2 °F 32.2 °F 59% 30.05 in 10.0 mi East 9.2 mph - N/A   Clear
12:33 AM 45.7 °F 41.5 °F 32.0 °F 59% 30.06 in 10.0 mi ESE 8.1 mph - N/A   Clear
12:53 AM 46.2 °F 41.2 °F 31.8 °F 57% 30.05 in 10.0 mi East 10.4 mph - N/A   Clear
1:13 AM 45.9 °F 41.2 °F 31.5 °F 57% 30.06 in 10.0 mi ESE 9.2 mph - N/A   Clear
1:33 AM 45.5 °F 40.3 °F 30.9 °F 57% 30.05 in 10.0 mi East 10.4 mph - N/A   Clear
1:53 AM 45.0 °F 39.7 °F 31.1 °F 58% 30.05 in 10.0 mi ESE 10.4 mph - N/A   Clear
2:13 AM 45.0 °F 40.6 °F 31.1 °F 58% 30.05 in 10.0 mi ESE 8.1 mph - N/A   Mostly Cloudy
2:33 AM 44.4 °F 40.0 °F 32.0 °F 62% 30.06 in 10.0 mi ESE 8.1 mph - N/A   Mostly Cloudy
2:53 AM 44.4 °F 39.5 °F 31.3 °F 60% 30.05 in 10.0 mi ESE 9.2 mph - N/A   Scattered Clouds
3:13 AM 44.6 °F 38.4 °F 30.9 °F 59% 30.04 in 10.0 mi ESE 12.7 mph - N/A   Clear
3:33 AM 44.6 °F 38.1 °F 30.7 °F 58% 30.04 in 10.0 mi ESE 13.8 mph - N/A   Clear
3:53 AM 43.7 °F 38.6 °F 31.8 °F 63% 30.06 in 10.0 mi SE 9.2 mph - N/A   Clear
4:13 AM 43.7 °F 39.1 °F 32.0 °F 63% 30.06 in 10.0 mi ESE 8.1 mph - N/A   Mostly Cloudy
4:33 AM 43.5 °F 39.4 °F 32.2 °F 64% 30.06 in 10.0 mi ESE 6.9 mph - N/A   Overcast
4:53 AM 43.3 °F 39.2 °F 32.2 °F 65% 30.05 in 10.0 mi ESE 6.9 mph - N/A   Overcast
5:12 AM 43.9 °F 38.8 °F 31.8 °F 63% 30.04 in 10.0 mi ESE 9.2 mph - N/A   Overcast
5:33 AM 43.7 °F 39.1 °F 32.0 °F 63% 30.05 in 10.0 mi ESE 8.1 mph - N/A   Overcast
5:53 AM 44.1 °F 39.0 °F 32.0 °F 63% 30.05 in 10.0 mi ESE 9.2 mph - N/A   Overcast
6:13 AM 43.9 °F 38.3 °F 32.0 °F 63% 30.05 in 10.0 mi ESE 10.4 mph - N/A   Light Drizzle
6:32 AM 43.7 °F 38.1 °F 32.4 °F 64% 30.06 in 10.0 mi ESE 10.4 mph - N/A   Light Drizzle
6:53 AM 43.0 °F 38.2 °F 33.6 °F 70% 30.06 in 10.0 mi SE 8.1 mph - N/A Rain Light Rain
7:13 AM 42.4 °F 38.1 °F 34.9 °F 75% 30.06 in 10.0 mi SE 6.9 mph - N/A Rain Light Rain
7:32 AM 42.8 °F 37.0 °F 35.2 °F 75% 30.06 in 10.0 mi ESE 10.4 mph - N/A Rain Light Rain
7:53 AM 43.0 °F 36.8 °F 35.6 °F 75% 30.05 in 10.0 mi ESE 11.5 mph - N/A   Light Drizzle
8:13 AM 43.3 °F 36.8 °F 34.7 °F 72% 30.05 in 10.0 mi SE 12.7 mph - N/A   Light Drizzle
8:32 AM 43.3 °F 36.5 °F 35.2 °F 73% 30.04 in 10.0 mi SE 13.8 mph - N/A Rain Rain
8:53 AM 43.2 °F 36.6 °F 35.2 °F 74% 30.04 in 10.0 mi SE 12.7 mph - N/A Rain Light Rain
9:13 AM 42.8 °F 37.0 °F 36.1 °F 77% 30.06 in 10.0 mi SE 10.4 mph - N/A Rain Light Rain
9:33 AM 42.8 °F 37.5 °F 36.7 °F 79% 30.06 in 10.0 mi SE 9.2 mph - 0.01 in Rain Light Rain
9:53 AM 42.8 °F 38.0 °F 37.2 °F 81% 30.07 in 10.0 mi SE 8.1 mph - 0.03 in Rain Rain
10:13 AM 42.8 °F 37.0 °F 37.6 °F 82% 30.06 in 10.0 mi SE 10.4 mph - 0.01 in Rain Light Rain
10:33 AM 42.1 °F 34.9 °F 37.4 °F 83% 30.05 in 7.0 mi SE 13.8 mph - 0.04 in Rain Rain
10:53 AM 41.9 °F 33.4 °F 37.9 °F 86% 30.04 in 7.0 mi ESE 18.4 mph - 0.07 in Rain Rain
11:13 AM 41.2 °F 32.1 °F 38.3 °F 89% 30.02 in 7.0 mi ESE 19.6 mph 25.3 mph 0.03 in Rain Rain
11:33 AM 40.6 °F 32.3 °F 38.7 °F 93% 30.02 in 5.0 mi ESE 16.1 mph - 0.06 in Rain Rain
12:13 PM 40.3 °F 30.7 °F 38.7 °F 94% 30.02 in 5.0 mi ESE 20.7 mph 26.5 mph 0.01 in Rain Light Rain
12:33 PM 40.3 °F 30.7 °F 38.7 °F 94% 30.02 in 10.0 mi ESE 20.7 mph 25.3 mph 0.01 in Rain , Thunderstorm Rain
12:53 PM 40.5 °F 31.5 °F 38.7 °F 93% 30.00 in 10.0 mi ESE 18.4 mph 24.2 mph 0.01 in Rain Light Rain
1:13 PM 40.5 °F 31.8 °F 38.7 °F 93% 29.99 in 10.0 mi ESE 17.3 mph 25.3 mph N/A Rain Rain
1:33 PM 40.6 °F 32.3 °F 38.8 °F 93% 29.99 in 10.0 mi ESE 16.1 mph - N/A   Light Drizzle
1:53 PM 41.0 °F 31.9 °F 38.3 °F 90% 29.99 in 10.0 mi ESE 19.6 mph - N/A   Overcast
2:12 PM 41.4 °F 33.6 °F 37.9 °F 88% 29.99 in 10.0 mi ESE 15.0 mph 24.2 mph N/A   Overcast
2:33 PM 41.5 °F 33.2 °F 37.8 °F 86% 29.98 in 10.0 mi ESE 17.3 mph 25.3 mph N/A   Overcast
3:13 PM 41.9 °F 33.4 °F 38.1 °F 86% 29.96 in 10.0 mi East 18.4 mph - N/A Rain Light Rain
3:33 PM 41.7 °F 33.1 °F 38.1 °F 87% 29.95 in 10.0 mi East 18.4 mph 24.2 mph N/A   Overcast
3:52 PM 41.7 °F 32.9 °F 38.1 °F 87% 29.93 in 10.0 mi East 19.6 mph 24.2 mph N/A   Overcast
4:13 PM 41.9 °F 32.8 °F 37.8 °F 85% 29.92 in 10.0 mi East 20.7 mph 26.5 mph N/A   Overcast
4:33 PM 41.9 °F 33.4 °F 37.8 °F 85% 29.90 in 10.0 mi East 18.4 mph 26.5 mph N/A   Overcast
4:53 PM 42.1 °F 33.9 °F 37.4 °F 83% 29.91 in 10.0 mi East 17.3 mph 25.3 mph N/A   Overcast
5:13 PM 41.9 °F 33.7 °F 37.0 °F 83% 29.91 in 10.0 mi ESE 17.3 mph - N/A   Light Drizzle
5:33 PM 41.9 °F 33.7 °F 37.4 °F 84% 29.91 in 10.0 mi ESE 17.3 mph - N/A Rain Light Rain
5:53 PM 41.9 °F 34.0 °F 36.9 °F 82% 29.89 in 10.0 mi East 16.1 mph 23.0 mph N/A   Overcast
6:13 PM 41.9 °F 33.1 °F 36.9 °F 82% 29.88 in 10.0 mi East 19.6 mph 26.5 mph N/A   Overcast
6:33 PM 41.9 °F 33.7 °F 36.9 °F 82% 29.87 in 10.0 mi East 17.3 mph 26.5 mph N/A   Overcast
6:53 PM 41.9 °F 33.7 °F 36.7 °F 82% 29.87 in 10.0 mi East 17.3 mph 26.5 mph N/A   Overcast
7:13 PM 41.5 °F 32.9 °F 36.7 °F 83% 29.88 in 10.0 mi East 18.4 mph 24.2 mph N/A   Overcast
7:33 PM 41.4 °F 32.4 °F 36.7 °F 83% 29.87 in 10.0 mi East 19.6 mph - N/A Rain Light Rain
7:53 PM 41.9 °F 33.7 °F 36.7 °F 82% 29.87 in 10.0 mi East 17.3 mph - N/A   Overcast
8:13 PM 41.9 °F 34.0 °F 36.5 °F 81% 29.87 in 10.0 mi East 16.1 mph - N/A   Overcast
8:33 PM 41.9 °F 34.6 °F 36.7 °F 82% 29.88 in 10.0 mi East 13.8 mph - N/A   Overcast
8:53 PM 41.9 °F 34.6 °F 36.7 °F 82% 29.88 in 10.0 mi East 13.8 mph - N/A   Overcast
9:13 PM 41.9 °F 34.3 °F 37.0 °F 83% 29.88 in 10.0 mi East 15.0 mph - N/A   Overcast
9:33 PM 41.9 °F 34.3 °F 37.0 °F 83% 29.88 in 10.0 mi East 15.0 mph - N/A   Overcast
9:53 PM 41.9 °F 35.4 °F 37.4 °F 84% 29.88 in 10.0 mi East 11.5 mph - N/A   Overcast
10:13 PM 41.9 °F 35.0 °F 37.4 °F 84% 29.89 in 10.0 mi East 12.7 mph - N/A   Overcast
10:32 PM 41.9 °F 35.4 °F 37.6 °F 85% 29.90 in 10.0 mi East 11.5 mph - N/A   Overcast
10:53 PM 41.9 °F 35.9 °F 37.8 °F 85% 29.89 in 10.0 mi East 10.4 mph - N/A   Overcast
11:13 PM 41.9 °F 34.6 °F 37.8 °F 85% 29.88 in 10.0 mi East 13.8 mph - N/A   Overcast
11:33 PM 41.9 °F 34.6 °F 37.8 °F 85% 29.87 in 10.0 mi East 13.8 mph 19.6 mph N/A   Overcast
11:52 PM 42.1 °F 33.9 °F 37.9 °F 85% 29.85 in 10.0 mi East 17.3 mph - N/A   Overcast